Miami, FL

7:13 AM EDT on September 28, 2016 (GMT -0400)
Miami International

Weather History for KMIA - November, 2012

Change the Weather History Date:

Thursday, November 29, 2012

  Actual Average Record
Temperature  
Mean Temperature 71 °F 73 °F  
Max Temperature 80 °F 80 °F 88 °F (1948)
Min Temperature 62 °F 66 °F 39 °F (1903)
Degree Days  
Heating Degree Days 0 0  
Month to date heating degree days 1 0  
Since 1 July heating degree days 1 0  
Cooling Degree Days 6 8  
Month to date cooling degree days 192 292  
Year to date cooling degree days 4431 4364  
Growing Degree Days 21 (Base 50)    
Moisture  
Dew Point 62 °F    
Average Humidity 76    
Maximum Humidity 93    
Minimum Humidity 58    
Precipitation  
Precipitation T in 0.09 in 1.42 in (1964)
Month to date precipitation 0.25 3.19  
Year to date precipitation 86.18 59.78  
Snow  
Snow 0.00 in - - ()
Month to date snowfall 0.0  
Since 1 July snowfall 0.0  
Since 1 September snowfall 0.0  
Snow Depth 0.00 in    
Sea Level Pressure  
Sea Level Pressure 30.17 in    
Wind  
Wind Speed 10 mph (NNE)    
Max Wind Speed 20 mph    
Max Gust Speed 26 mph    
Visibility 9 miles    
Events      
T = Trace of Precipitation, MM = Missing Value Source: NWS Daily Summary

Daily Weather History Graph

Daily Weather History Graph

Search for Another Location

Airport or City:

Trip Planner

Search our weather history database for the weather conditions in past years. The results will help you decide how hot, cold, wet, or windy it might be!

Date:

Astronomy

Nov. 29, 2012 Rise Set
Actual Time 6:49 AM EST 5:29 PM EST
Civil Twilight 6:24 AM EST 5:54 PM EST
Nautical Twilight 5:56 AM EST 6:22 PM EST
Astronomical Twilight 5:28 AM EST 6:50 PM EST
Moon 6:31 PM EST (11/29) 7:34 AM EST (11/29)
Length of Visible Light 11h 29m
Length of Day
10h 39m
Full, 99% of the Moon is Illuminated
Nov 29
Full
Dec 6
Last Quarter
Dec 13
New
Dec 20
First Quarter
Dec 28
Full

Hourly Weather History & Observations

Time (EST) Temp. Dew Point Humidity Pressure Visibility Wind Dir Wind Speed Gust Speed Precip Events Conditions
12:53 AM 66.9 °F 63.0 °F 87% 30.16 in 7.0 mi NNW 4.6 mph - 0.00 in   Overcast
1:53 AM 64.9 °F 62.1 °F 90% 30.16 in 10.0 mi NNW 4.6 mph - N/A   Clear
2:53 AM 64.0 °F 61.0 °F 90% 30.16 in 10.0 mi NNW 4.6 mph - N/A   Partly Cloudy
3:53 AM 63.0 °F 61.0 °F 93% 30.15 in 7.0 mi NNW 4.6 mph - N/A   Clear
4:53 AM 62.1 °F 60.1 °F 93% 30.16 in 5.0 mi NNW 5.8 mph - N/A   Scattered Clouds
5:53 AM 62.1 °F 59.0 °F 90% 30.17 in 5.0 mi NNW 4.6 mph - N/A   Partly Cloudy
6:53 AM 63.0 °F 60.1 °F 90% 30.18 in 6.0 mi NNW 4.6 mph - N/A   Scattered Clouds
7:53 AM 64.0 °F 61.0 °F 90% 30.19 in 7.0 mi NNW 3.5 mph - N/A   Mostly Cloudy
8:53 AM 71.1 °F 63.0 °F 75% 30.21 in 10.0 mi NNW 5.8 mph - N/A   Scattered Clouds
9:53 AM 75.9 °F 62.1 °F 62% 30.21 in 10.0 mi ENE 13.8 mph 21.9 mph N/A   Scattered Clouds
10:53 AM 78.8 °F 62.6 °F 57% 30.20 in 10.0 mi ENE 13.8 mph 23.0 mph N/A   Scattered Clouds
11:53 AM 78.1 °F 62.1 °F 58% 30.20 in 10.0 mi ENE 12.7 mph 24.2 mph N/A   Mostly Cloudy
12:53 PM 77.0 °F 62.1 °F 60% 30.18 in 10.0 mi ENE 16.1 mph 25.3 mph N/A   Mostly Cloudy
1:53 PM 78.1 °F 63.0 °F 60% 30.16 in 10.0 mi ENE 12.7 mph - N/A   Mostly Cloudy
2:53 PM 79.0 °F 63.0 °F 58% 30.15 in 10.0 mi ENE 17.3 mph 23.0 mph N/A   Mostly Cloudy
3:53 PM 75.9 °F 63.0 °F 64% 30.15 in 10.0 mi ENE 16.1 mph 23.0 mph N/A   Mostly Cloudy
4:53 PM 75.0 °F 63.0 °F 66% 30.15 in 10.0 mi NE 11.5 mph 21.9 mph N/A   Scattered Clouds
5:53 PM 75.0 °F 63.0 °F 66% 30.16 in 10.0 mi NE 11.5 mph 20.7 mph 0.00 in   Mostly Cloudy
6:53 PM 73.9 °F 62.1 °F 66% 30.17 in 10.0 mi NE 11.5 mph 17.3 mph N/A   Mostly Cloudy
7:53 PM 73.9 °F 63.0 °F 68% 30.18 in 10.0 mi NE 11.5 mph 17.3 mph N/A   Partly Cloudy
8:53 PM 73.0 °F 62.1 °F 68% 30.19 in 10.0 mi ENE 10.4 mph - N/A   Partly Cloudy
9:53 PM 73.0 °F 63.0 °F 71% 30.19 in 10.0 mi ENE 12.7 mph 18.4 mph N/A   Scattered Clouds
10:53 PM 73.0 °F 62.1 °F 68% 30.19 in 10.0 mi ENE 9.2 mph - N/A   Partly Cloudy
11:53 PM 73.0 °F 61.0 °F 66% 30.18 in 10.0 mi ENE 11.5 mph - N/A   Mostly Cloudy